Regional Weather Roundup
Issued by NWS

Current Version | Previous Version | Text Only | Print | Product List | Glossary On
Versions: 1 2 3 4 5 6 7 8 9 10 11 12 13 14 15 16 17 18 19 20 21 22 23 24 25 26 27 28 29 30 31 32 33 34 35 36 37 38 39 40 41 42 43 44 45 46 47 48 49 50
000
ASUS43 KMPX 220510
RWRMN
WEATHER ROUNDUP FOR MINNESOTA
NATIONAL WEATHER SERVICE TWIN CITIES/CHANHASSEN MN
1100 PM CST SUN JAN 21 2018


NOTE: "FAIR" INDICATES FEW OR NO CLOUDS BELOW 12,000 FEET WITH NO
SIGNIFICANT WEATHER AND/OR OBSTRUCTIONS TO VISIBILITY. N/A MEANS
CURRENT SKY AND/OR WEATHER CONDITIONS ARE NOT AVAILABLE.

MNZ060>063-068>070-220600-
   Twin Cities Metro

CITY           SKY/WX    TMP DP  RH WIND       PRES   REMARKS
TWIN CITIES    CLOUDY    35  30  82 N8        29.94F WCI  29
ST PAUL        CLOUDY    35  29  78 N5        29.95F WCI  31
CRYSTAL        CLOUDY    35  26  69 N8        29.94F WCI  29
BLAINE         FAIR      36  30  80 NE9       29.95F
LAKEVILLE      FAIR      36  30  80 N12       29.91F
EDEN PRAIRIE   CLOUDY    36  28  73 N8        29.92F
SOUTH ST PAUL  CLOUDY    37  29  74 N5        29.93F
LAKE ELMO      FAIR      36  30  80 N7        29.94F
$$
MNZ001>005-007-008-013>017-022>024-027-028-220600-
   Northwest Minnesota

CITY           SKY/WX    TMP DP  RH WIND       PRES   REMARKS
BEMIDJI        CLOUDY    24  24  97 N6        30.05F WCI  17
HALLOCK        CLOUDY    21  19  93 CALM      30.12S
ROSEAU         CLOUDY    25  19  80 CALM      30.11F
WARROAD        CLOUDY    25  19  80 CALM      30.12S
THIEF RVR FALL CLOUDY    23  22  96 NE6       30.11S WCI  16
CROOKSTON      MOCLDY    25  23  93 NE3       30.12F
FOSSTON        CLOUDY    23  21  93 NE7       30.08S WCI  15
DETROIT LAKES  CLOUDY    27  27 100 E8        30.05S WCI  18
MOORHEAD       CLOUDY    25  21  86 N9        30.09F WCI  15
PARK RAPIDS    CLOUDY    25  22  88 NE9       30.03S FOG     WCI  15
MAHNOMEN       CLOUDY    24  23  96 NE10      30.07R WCI  14
$$
MNZ006-009>011-018-025>026-220600-
   North Central Minnesota

CITY           SKY/WX    TMP DP  RH WIND       PRES   REMARKS
BAUDETTE       CLOUDY    25  23  92 NE6       30.09S WCI  18
FLAG ISLAND    CLOUDY    21  21 100 NE6       30.11S FOG     WCI  14
INTL FALLS     CLOUDY    24  22  91 NE7       30.09S FOG     WCI  16
WASKISH        CLOUDY    25  25 100 CALM      30.08F
BIG FORK       CLOUDY    27  25  93 CALM      30.06S FOG
LONGVILLE      CLOUDY    27  25  93 NE3       30.05S
GRAND RAPIDS   CLOUDY    26  25  96 CALM      30.07S
CRANE LAKE     CLOUDY    23  21  93 NE5       30.12R WCI  17
ORR            CLOUDY    25  23  93 CALM      30.05S FOG
COOK           FOG       25  25 100 CALM      30.07S VSB 3/4
WALKER         FOG       24  23  96 CALM      30.05S VSB 3/4
$$
MNZ012-019>021-037-220600-
   Northeast Minnesota

CITY           SKY/WX    TMP DP  RH WIND       PRES   REMARKS
DULUTH         LGT SNOW  29  28  96 E12       30.03S VSB 1   WCI  19
HIBBING        CLOUDY    26  25  96 E3        30.05S FOG
EVELETH        LGT SNOW  25  22  89 CALM      30.06S
DULUTH HARBOR  CLOUDY    30  30 100 NE23      30.08S WCI  17
TWO HARBORS    LGT SNOW  30  27  86 NE10G20   30.05S WCI  21
SILVER BAY     DRIZZLE   27  27 100 NE9       30.08R WCI  17
GRAND MARAIS     N/A     26  20  77 NE10      30.14S WCI  16
G MARAIS ARPRT CLOUDY    18  16  93 N7        30.07S WCI   8
$$
MNZ029>031-032-039>041-046>048-054>057-064-220600-
   West Central Minnesota

CITY           SKY/WX    TMP DP  RH WIND       PRES   REMARKS
FERGUS FALLS   CLOUDY    27  25  93 NE8       30.04S WCI  18
WHEATON        CLOUDY    25  23  93 N10       30.06F WCI  15
MORRIS         CLOUDY    27  25  93 N9        30.00F FOG     WCI  17
ALEXANDRIA     CLOUDY    25  22  88 N12       30.00S WCI  14
ELBOW LAKE     CLOUDY    27  25  94 NE7       30.03S WCI  19
WADENA         CLOUDY    25  25 100 NE9       30.02S FOG     WCI  15
GLENWOOD       MOCLDY    27  25  93 N9        29.99S WCI  17
APPLETON       CLOUDY    28  27  93 N15       29.98F WCI  17
BENSON         CLOUDY    30  27  86 NE9       30.00F WCI  22
ORTONVILLE     CLOUDY    27  23  86 N16       30.01F WCI  14
MADISON        CLOUDY    30  27  86 N13       29.99F WCI  20
WILLMAR        FAIR      32  28  86 NE9       29.99S WCI  24
$$
MNZ033>034-036-042>043-049>051-058-059-220600-
   Central Minnesota

CITY           SKY/WX    TMP DP  RH WIND       PRES   REMARKS
ST CLOUD       CLOUDY    30  26  85 N6        29.99R WCI  24
SAUK CENTRE      N/A     28  24  86 N8        30.00R WCI  20
PAYNESVILLE    CLOUDY    31  28  90 N13       29.98F WCI  21
AITKIN         CLOUDY    27  23  86 N8        30.01F WCI  18
PINE RIVER     CLOUDY    25  21  86 NE7       30.06F WCI  17
BRAINERD       CLOUDY    28  24  85 NE9       30.02F WCI  19
STAPLES        CLOUDY    25  25 100 N6        30.02S FOG     WCI  18
LONG PRAIRIE   CLOUDY    27  23  86 NW9       30.01S WCI  17
LITTLE FALLS   CLOUDY    27  19  74 N6        30.01S WCI  20
LITCHFIELD     MOCLDY    34  30  86 N8        29.96F WCI  27
BUFFALO        CLOUDY    34  28  80 N5        29.98R WCI  30
MAPLE LAKE     CLOUDY    34  30  85 MISG      29.98R
HUTCHINSON     CLOUDY    35  30  83 N10G17    29.94F WCI  27
$$
MNZ037-044-045-052-053-220600-
   East Central Minnesota

CITY           SKY/WX    TMP DP  RH WIND       PRES   REMARKS
PRINCETON      CLOUDY    34  28  80 N7        29.98S WCI  28
MORA           CLOUDY    32  28  86 NE8       30.01F WCI  25
CAMBRIDGE      CLOUDY    34  25  69 N8        29.98S WCI  27
RUSH CITY      CLOUDY    30  27  89 N8        29.99S WCI  23
MOOSE LAKE     CLOUDY    30  28  93 NE7       30.01F WCI  23
HINCKLEY       CLOUDY    32  30  93 NE13      30.00F WCI  22
CLOQUET        LGT SNOW  28  28 100 E9        30.03S WCI  20
MCGREGOR       CLOUDY    30  27  86 NE7       30.03F WCI  23
$$
MNZ071>073-080-081-089-090-097-098-220600-
   Southwest Minnesota

CITY           SKY/WX    TMP DP  RH WIND       PRES   REMARKS
MONTEVIDEO     CLOUDY    32  28  86 E3        29.99R
GRANITE FALLS  CLOUDY    34  31  86 N12       29.97F WCI  26
CANBY          CLOUDY    29  28  93 W13       29.99S WCI  19
MARSHALL       CLOUDY    31  28  89 N21       29.91F WCI  18
REDWOOD FALLS  CLOUDY    34  28  79 VRB6      29.93F WCI  29
OLIVIA         PTCLDY    34  30  86 N16       29.92F WCI  23
PIPESTONE      MOCLDY    30  27  86 NE16G26   29.87S WCI  19
WINDOM         CLOUDY    34  19  55 N17       29.85F WCI  23
WORTHINGTON    CLOUDY    33  29  85 N21G29    29.83F WCI  21
JACKSON        CLOUDY    32  28  86 NE18      29.83F WCI  20
TRACY          CLOUDY    33  31  94 N10       29.91F WCI  24
SLAYTON        CLOUDY    31  29  94 N15G21    29.89S WCI  20
$$
MNZ065>067-074>077-082>085-091>093-220600-
   South Central Minnesota

CITY           SKY/WX    TMP DP  RH WIND       PRES   REMARKS
MANKATO        CLOUDY    35  29  78 NE16      29.87F WCI  25
NEW ULM        CLOUDY    34  27  75 NE9       29.90F WCI  26
ST JAMES       CLOUDY    34  28  80 N13       29.88F WCI  25
FAIRMONT       CLOUDY    34  29  82 N15G22    29.82F WCI  24
GLENCOE        CLOUDY    36  30  80 N8        29.92F
FARIBAULT      CLOUDY    36  30  80 N12       29.89F
OWATONNA       CLOUDY    36  30  80 N13G18    29.87F
WASECA         CLOUDY    34  30  86 NE20      29.86F WCI  22
ALBERT LEA     CLOUDY    36  28  75 NE12      29.81F
$$
MNZ078>079-086>088-094>096-220600-
   Southeast Minnesota

CITY           SKY/WX    TMP DP  RH WIND       PRES   REMARKS
ROCHESTER      CLOUDY    35  30  82 N14       29.84F WCI  26
RED WING       CLOUDY    39  27  60 E9        29.90F
STANTON        FAIR      35  31  84 NE9       29.89F WCI  28
DODGE CENTER   CLOUDY    36  30  80 NE12      29.84F
WINONA         CLOUDY    39  32  75 N3        29.86F
PRESTON        CLOUDY    36  31  82 NE8       29.83F
$$
ABBREVIATIONS USED IN REMARKS
   TC - TEMPERATURES IN CELSIUS
  WCI - WIND CHILL INDEX
   HX - HEAT INDEX
  VSB - VISIBILITY
$$




USA.gov is the U.S. government's official web portal to all federal, state and local government web resources and services.